Location: Newark
(47.3150°N, 5.1150°E)
Time: 12:37:01
(UTC+00:00)

AO-7 - Visible Passes

Search period start: 15 December 2019 00:00
Search period end: 25 December 2019 00:00
Orbit: 1439 x 1459 km, 101.8° (Epoch: 14 December)

Date Brightness Start Highest point End Pass type
(mag) Time Alt. Az. Time Alt. Az. Time Alt. Az.
15 Dec ? 02:39:33 10° NNE 02:47:16 39° E 02:49:27 34° SE visible
15 Dec ? 04:32:11 10° NNE 04:40:18 57° WNW 04:44:21 31° SW visible
15 Dec ? 06:26:25 10° N 06:31:20 17° NW 06:36:16 10° WNW visible
16 Dec ? 01:41:23 10° NE 01:46:22 17° E 01:48:15 16° ESE visible
16 Dec ? 03:32:07 10° NNE 03:40:31 75° ESE 03:43:09 49° S visible
16 Dec ? 05:25:33 10° N 05:32:37 32° NW 05:38:03 16° WSW visible
16 Dec ? 16:33:23 10° WSW 16:37:09 14° W 16:40:59 10° WNW visible
17 Dec ? 02:32:38 10° NNE 02:40:10 36° E 02:41:58 33° ESE visible
17 Dec ? 04:25:08 10° NNE 04:33:20 62° WNW 04:36:52 37° SW visible
17 Dec ? 06:19:16 10° N 06:24:30 19° NW 06:29:45 10° W visible
18 Dec ? 01:34:50 10° NE 01:39:12 15° E 01:40:47 14° E visible
18 Dec ? 03:25:07 10° NNE 03:33:29 69° ESE 03:35:41 52° SSE visible
18 Dec ? 05:18:28 10° N 05:25:42 35° NW 05:30:35 19° WSW visible
18 Dec ? 16:25:28 10° WSW 16:30:00 15° W 16:34:32 10° NW visible
19 Dec ? 02:25:45 10° NE 02:33:05 32° E 02:34:31 31° ESE visible
19 Dec ? 04:18:06 10° NNE 04:26:22 67° WNW 04:29:25 42° SW visible
19 Dec ? 06:12:07 10° N 06:17:40 20° NW 06:23:13 10° W visible
20 Dec ? 01:28:27 10° ENE 01:32:01 13° E 01:33:21 13° E visible
20 Dec ? 03:18:08 10° NNE 03:26:27 64° ESE 03:28:15 53° SSE visible
20 Dec ? 05:11:23 10° N 05:18:48 37° NW 05:23:10 23° WSW visible
20 Dec ? 16:17:44 10° SW 16:22:49 17° W 16:27:58 10° NW visible
21 Dec ? 02:18:53 10° NE 02:25:58 30° E 02:27:06 29° ESE visible
21 Dec ? 04:11:04 10° NNE 04:19:23 72° WNW 04:22:01 48° SW visible
21 Dec ? 06:04:58 10° N 06:10:48 22° NW 06:16:39 10° W visible
22 Dec ? 01:22:23 10° ENE 01:24:50 11° E 01:25:58 11° E visible
22 Dec ? 03:11:09 10° NNE 03:19:24 58° ESE 03:20:52 52° SE visible
22 Dec ? 05:04:18 10° N 05:11:53 40° NW 05:15:46 26° WSW visible
23 Dec ? 02:12:02 10° NE 02:18:52 27° E 02:19:44 26° ESE visible
23 Dec ? 04:04:01 10° NNE 04:12:24 78° WNW 04:14:38 54° SW visible
23 Dec ? 05:57:51 10° N 06:03:57 23° NW 06:09:33 11° W visible
24 Dec ? 03:04:11 10° NNE 03:12:22 53° ESE 03:13:32 50° SE visible
24 Dec ? 04:57:14 10° N 05:04:58 43° WNW 05:08:26 30° WSW visible
